Wind_Speed
39 39 40 40 40 41 42 41 42 43 43 44 45 44 44 45 45 45 46 46 46 46 46 45 45 45 45 45 46 45 45 46 46 46 46 46 45 45 45 44 44 44 43
39 40 40 40 41 41 42 42 42 43 44 45 45 45 45 45 46 46 45 45 45 45 46 47 46 46 46 46 47 47 47 47 47 47 48 48 48 48 47 47 46 46 46
39 40 40 40 41 41 41 41 41 42 44 45 45 45 46 46 46 47 47 46 46 46 47 47 47 47 46 46 47 47 47 48 48 49 49 49 49 49 49 49 49 48 48
39 40 40 41 41 41 41 41 41 42 43 44 45 46 46 46 47 47 48 48 48 48 48 48 48 48 48 48 48 48 48 48 48 49 50 51 51 50 50 50 51 51 50
39 40 40 41 42 42 42 42 41 41 43 44 45 45 46 46 46 47 48 48 49 49 49 50 50 50 50 50 50 50 50 50 50 50 51 52 52 52 53 52 52 52 52
38 40 41 41 42 42 42 42 42 42 43 44 44 45 45 46 47 47 48 48 48 49 50 50 51 51 51 51 51 52 53 53 52 52 53 53 53 53 54 53 53 54 54
38 39 40 41 41 42 42 43 44 44 43 44 44 45 44 45 46 47 48 49 49 49 50 51 51 52 52 52 53 54 54 54 53 52 52 53 53 54 55 55 54 54 55
37 38 39 40 41 42 42 42 42 43 43 43 44 45 45 45 46 47 48 49 49 49 50 51 51 52 52 53 53 54 54 54 54 53 53 53 53 54 55 55 55 55 55
37 38 39 40 41 41 42 42 42 42 42 42 43 44 45 46 46 47 48 48 49 50 51 51 51 52 52 52 52 53 53 54 54 54 53 53 53 54 55 55 56 57 56
36 37 38 39 40 41 41 42 43 43 43 43 44 45 45 46 47 47 48 48 49 50 51 52 51 52 52 52 52 52 52 54 55 54 54 55 54 54 54 55 55 56 56
35 36 37 38 39 40 41 42 42 43 43 43 44 45 46 47 48 48 48 49 50 51 51 52 53 52 53 53 53 53 53 54 54 54 54 55 55 54 54 55 55 55 55
34 35 37 38 39 40 41 42 42 43 43 44 44 45 46 47 48 48 49 50 50 51 51 52 52 53 53 54 54 55 55 54 54 54 54 54 54 54 54 55 56 55 56
35 36 37 38 39 40 41 42 42 42 43 43 44 45 45 46 47 48 49 50 50 51 52 53 53 54 54 54 55 55 55 54 54 55 55 54 54 54 55 56 56 56 56
34 35 36 37 38 40 41 41 42 43 43 43 43 44 44 45 46 47 48 49 50 50 51 52 53 54 55 55 55 56 56 56 56 55 56 56 56 56 56 56 57 57 57
34 35 36 36 37 38 39 40 42 42 43 42 43 43 43 45 46 47 48 48 49 50 50 51 52 53 54 54 55 55 56 56 56 56 56 57 57 57 57 57 57 57 57
35 35 35 36 36 37 38 39 40 41 42 42 42 43 44 45 46 47 47 48 48 49 50 51 52 52 53 54 54 55 56 57 57 56 56 56 57 58 58 57 57 57 57
35 36 36 37 37 37 38 39 39 40 41 42 42 43 44 44 45 46 46 47 48 48 49 49 50 52 52 54 55 56 56 57 57 57 57 57 57 58 58 58 58 58 58
36 36 37 37 38 38 39 39 39 40 40 41 43 43 44 44 44 45 46 47 47 48 49 49 50 51 51 52 54 55 55 56 56 57 57 58 58 58 59 59 58 58 57
36 36 37 37 38 38 38 39 40 40 41 41 42 43 43 44 45 45 46 47 47 47 48 48 49 50 50 51 52 52 53 54 54 55 55 56 57 57 58 58 58 58 58
36 37 37 37 38 39 39 39 40 40 41 41 41 42 43 44 44 45 45 46 46 47 47 48 48 49 50 51 51 51 53 53 53 54 54 54 55 56 56 57 57 57 57
36 37 38 38 39 39 39 39 40 41 41 41 41 42 43 44 45 46 46 46 47 47 47 47 48 49 50 50 50 51 51 52 52 52 53 53 54 54 55 56 56 55 55
38 38 38 39 39 39 40 40 40 40 41 41 42 42 43 44 44 45 46 47 47 47 47 47 48 49 49 50 51 51 51 52 52 52 51 51 52 53 54 55 55 55 54
38 38 39 39 39 39 40 40 40 41 40 40 41 42 43 43 44 45 45 46 47 48 48 48 48 48 49 49 50 51 51 52 51 50 50 50 50 50 52 52 53 53 53
38 39 39 39 39 39 40 40 40 39 40 40 40 41 41 43 44 45 46 47 48 48 49 49 48 49 48 48 49 49 49 49 49 48 49 49 49 50 51 51 51 51 51
39 39 39 39 39 39 39 39 39 39 39 39 39 40 40 41 42 44 45 45 46 47 47 48 48 48 48 47 47 47 47 47 47 47 47 48 48 49 50 50 51 50 49
38 38 38 38 38 38 38 38 38 38 39 39 39 39 40 40 41 42 42 43 44 45 45 46 46 47 47 47 47 46 46 46 46 46 46 46 46 47 48 48 48 48 48
Wind_Direction
258 259 260 259 259 260 261 260 259 258 257 256 255 253 252 251 251 251 251 251 251 250 250 251 251 251 251 250 249 249 250 250 251 252 252 252 252 253 253 253 253 254 254
260 260 261 260 260 260 261 260 260 258 256 255 254 252 251 250 250 250 250 250 250 251 251 251 251 251 251 251 250 249 250 251 251 252 253 253 253 253 253 254 254 254 254
263 261 260 260 261 261 260 260 260 259 258 256 254 252 252 251 250 250 250 250 251 251 252 251 251 251 251 252 252 251 251 252 252 253 254 254 254 254 254 254 254 254 255
263 261 260 260 261 260 261 261 260 259 258 257 256 254 253 252 251 251 251 252 252 251 251 251 252 252 252 253 253 253 253 253 254 254 255 255 255 254 254 254 255 255 256
265 262 261 261 260 260 261 260 260 260 259 258 257 255 254 252 251 251 251 252 253 253 252 252 253 253 253 253 253 254 254 255 255 255 255 256 256 255 255 255 255 256 256
268 265 262 261 261 261 261 259 259 261 260 258 256 255 254 252 251 251 252 252 252 253 253 253 254 254 254 254 254 254 255 255 255 255 255 256 256 256 256 255 255 255 256
269 266 264 263 262 262 262 261 260 260 260 259 257 256 255 253 252 252 252 252 252 252 253 253 254 255 255 256 255 254 255 255 255 255 256 256 257 257 257 256 255 255 256
270 267 265 264 263 262 262 261 261 261 261 260 258 257 256 254 253 253 253 253 253 253 253 254 255 255 255 256 256 256 256 256 256 256 256 257 258 258 258 258 257 256 256
272 269 266 265 265 264 263 262 262 262 261 260 259 258 258 257 255 254 253 253 254 254 254 254 254 255 255 256 256 256 256 256 257 256 257 257 258 259 259 258 258 258 257
275 272 268 267 267 266 265 264 263 263 262 262 261 259 259 258 256 255 255 254 255 254 254 254 255 256 256 256 256 256 256 257 257 256 257 257 257 258 259 259 259 258 258
276 274 271 270 269 267 267 265 264 264 263 263 263 262 261 259 256 255 255 255 254 254 255 256 256 256 257 258 257 257 257 257 257 256 257 257 257 259 259 259 259 260 259
278 276 273 272 271 269 268 267 266 265 264 263 263 262 261 260 257 256 256 256 255 255 255 256 256 257 257 258 258 257 257 257 257 257 257 257 258 259 259 258 259 259 259
279 278 275 273 272 270 268 268 266 265 265 264 264 263 261 259 257 256 255 256 256 256 256 257 257 257 257 257 258 257 257 257 258 257 257 258 259 259 259 259 259 259 259
280 279 278 275 273 271 270 269 267 266 265 265 264 263 261 259 257 257 256 257 258 257 257 258 258 258 257 257 256 256 257 257 257 258 258 258 259 259 259 259 260 260 260
280 280 279 277 274 273 271 269 268 266 265 264 264 263 262 260 258 258 258 259 259 259 258 258 258 258 257 257 256 256 256 257 257 258 258 259 259 259 259 259 260 259 260
281 280 279 278 276 273 272 270 269 267 265 264 264 264 264 261 260 259 260 259 260 260 259 258 258 258 258 257 256 257 257 257 257 258 258 258 259 258 258 259 260 260 260
281 281 281 279 278 276 274 272 270 268 266 265 265 265 265 263 262 261 260 260 261 261 260 259 259 259 258 257 257 256 257 257 258 259 259 258 258 259 258 259 260 260 260
282 282 281 281 279 278 275 273 271 269 268 267 267 267 266 264 263 262 261 260 260 261 261 260 259 259 259 258 257 257 257 257 258 259 259 258 258 259 259 259 260 260 260
283 283 282 281 281 279 277 274 272 270 270 270 269 267 266 265 264 263 263 262 262 262 262 261 260 260 260 260 259 258 258 258 259 259 259 260 259 259 259 259 259 259 259
284 284 284 283 282 281 278 276 273 272 272 270 269 268 266 265 264 264 263 263 262 263 263 262 261 261 261 260 260 260 259 259 259 259 259 260 259 258 259 259 259 259 259
286 285 285 284 283 281 279 277 275 274 272 271 270 269 267 266 265 265 264 263 263 263 263 263 262 261 261 261 261 261 261 261 260 260 260 260 259 258 258 258 259 259 259
286 286 284 283 283 281 280 278 277 275 273 271 270 270 269 269 268 267 266 265 264 263 263 263 262 262 262 262 261 261 262 262 262 261 261 260 259 258 258 258 258 258 259
286 286 285 284 282 281 280 280 278 276 275 273 272 271 271 270 269 268 267 266 265 264 264 263 263 263 263 263 262 262 263 263 262 261 260 260 259 258 257 258 258 259 259
285 285 285 284 282 281 281 280 279 278 276 276 274 273 272 270 269 269 269 267 266 266 265 264 263 263 262 263 262 262 262 262 261 260 259 259 259 259 258 258 258 258 259
286 286 286 284 283 282 281 280 279 278 277 277 276 275 274 272 271 271 270 269 268 268 267 265 264 263 262 262 264 264 262 261 260 259 259 259 259 258 258 257 257 257 257
287 287 286 285 284 283 282 282 281 280 278 277 277 277 277 275 274 272 272 272 271 269 268 266 265 264 263 262 263 263 262 261 260 259 259 258 258 258 257 257 257 256 255
Height
5683 5683 5684 5684 5685 5686 5686 5686 5687 5689 5690 5691 5693 5695 5696 5698 5700 5702 5704 5706 5709 5711 5713 5715 5717 5719 5722 5724 5726 5728 5730 5733 5735 5738 5740 5743 5745 5747 5749 5751 5753 5755 5757
5671 5671 5672 5672 5673 5674 5674 5674 5674 5676 5678 5679 5680 5682 5684 5686 5688 5690 5692 5694 5697 5699 5701 5703 5706 5708 5710 5712 5715 5717 5719 5721 5724 5726 5728 5731 5734 5736 5738 5740 5742 5744 5746
5659 5659 5660 5660 5661 5662 5662 5662 5663 5663 5665 5667 5668 5670 5672 5674 5676 5679 5681 5683 5685 5687 5689 5691 5693 5696 5698 5700 5702 5705 5708 5710 5712 5714 5717 5719 5722 5724 5726 5728 5730 5732 5734
5647 5647 5648 5648 5648 5649 5650 5650 5651 5651 5652 5654 5656 5658 5660 5662 5665 5667 5669 5671 5673 5675 5677 5679 5681 5683 5685 5688 5690 5693 5695 5698 5700 5702 5704 5707 5709 5711 5714 5716 5718 5720 5722
5636 5635 5636 5636 5636 5637 5638 5638 5639 5639 5640 5641 5643 5645 5647 5649 5652 5654 5656 5658 5660 5662 5664 5667 5668 5671 5673 5675 5678 5680 5683 5685 5687 5689 5691 5693 5695 5697 5700 5703 5705 5707 5708
5624 5624 5624 5624 5624 5625 5626 5626 5627 5627 5628 5629 5630 5632 5634 5636 5639 5641 5643 5646 5648 5650 5652 5654 5656 5658 5660 5662 5664 5667 5669 5671 5674 5676 5678 5680 5681 5684 5686 5689 5691 5693 5695
5613 5612 5612 5612 5613 5613 5614 5614 5615 5616 5616 5617 5618 5619 5621 5623 5626 5628 5630 5633 5635 5637 5639 5641 5643 5645 5647 5648 5651 5653 5655 5657 5659 5662 5664 5666 5668 5669 5671 5674 5676 5678 5680
5601 5601 5601 5601 5601 5601 5601 5602 5603 5603 5604 5605 5606 5606 5608 5610 5613 5615 5617 5619 5622 5624 5626 5628 5630 5632 5633 5635 5637 5639 5641 5643 5645 5648 5650 5652 5654 5655 5656 5659 5661 5663 5666
5590 5589 5589 5589 5589 5589 5589 5590 5590 5591 5591 5592 5593 5594 5595 5597 5599 5601 5603 5605 5608 5610 5612 5614 5616 5618 5619 5621 5622 5624 5627 5629 5631 5634 5635 5637 5639 5640 5642 5644 5646 5648 5651
5579 5578 5577 5577 5577 5577 5577 5577 5578 5578 5579 5579 5580 5581 5582 5584 5585 5587 5589 5591 5593 5595 5598 5600 5602 5604 5605 5607 5609 5611 5613 5615 5617 5619 5621 5623 5625 5626 5627 5629 5630 5632 5635
5569 5567 5566 5565 5565 5565 5565 5565 5565 5565 5566 5566 5567 5568 5569 5570 5571 5573 5575 5577 5579 5581 5583 5585 5587 5589 5591 5593 5595 5597 5599 5601 5602 5605 5606 5608 5610 5611 5613 5614 5616 5617 5619
5558 5556 5555 5554 5553 5553 5552 5552 5552 5552 5553 5553 5554 5554 5555 5556 5557 5559 5561 5563 5565 5566 5568 5570 5572 5574 5576 5578 5580 5582 5584 5586 5588 5590 5591 5593 5594 5596 5598 5600 5601 5603 5604
5547 5545 5544 5542 5541 5540 5540 5540 5540 5540 5540 5540 5540 5541 5541 5542 5543 5545 5546 5548 5550 5551 5553 5554 5556 5559 5561 5563 5565 5567 5569 5571 5573 5575 5576 5578 5579 5581 5583 5584 5586 5588 5589
5536 5534 5533 5531 5529 5528 5527 5527 5527 5527 5526 5526 5527 5527 5527 5528 5529 5530 5532 5533 5534 5536 5537 5539 5541 5542 5544 5546 5549 5551 5553 5555 5557 5559 5561 5562 5564 5566 5567 5569 5570 5572 5573
5525 5523 5521 5519 5517 5516 5515 5514 5514 5513 5513 5513 5514 5514 5514 5515 5515 5516 5517 5518 5519 5520 5522 5523 5525 5526 5528 5530 5532 5534 5536 5539 5541 5543 5545 5546 5548 5550 5551 5553 5555 5556 5557
5514 5512 5510 5508 5506 5504 5503 5502 5501 5500 5500 5500 5501 5501 5501 5501 5501 5502 5502 5503 5504 5505 5506 5507 5509 5510 5512 5514 5515 5517 5520 5522 5524 5526 5528 5530 5531 5533 5535 5537 5538 5540 5541
5504 5501 5499 5496 5494 5493 5491 5490 5488 5488 5487 5487 5487 5487 5487 5487 5487 5488 5488 5489 5489 5490 5491 5492 5493 5494 5496 5497 5499 5500 5503 5505 5507 5509 5511 5513 5515 5517 5518 5520 5522 5523 5524
5493 5491 5488 5486 5483 5481 5479 5477 5476 5475 5475 5474 5474 5474 5473 5473 5473 5474 5474 5474 5475 5475 5476 5477 5477 5478 5480 5481 5482 5483 5485 5488 5490 5492 5494 5496 5498 5500 5501 5503 5505 5506 5508
5482 5480 5477 5474 5472 5469 5467 5466 5465 5463 5463 5462 5461 5461 5460 5460 5460 5460 5460 5460 5460 5461 5461 5462 5462 5463 5464 5465 5466 5467 5469 5471 5473 5475 5477 5479 5481 5483 5484 5486 5488 5490 5491
5471 5468 5466 5463 5461 5458 5456 5454 5453 5451 5450 5449 5448 5448 5447 5447 5446 5446 5446 5446 5446 5446 5446 5447 5448 5448 5449 5450 5451 5451 5453 5455 5457 5459 5460 5462 5464 5465 5466 5468 5471 5473 5475
5460 5457 5455 5452 5449 5447 5445 5443 5441 5439 5438 5437 5436 5435 5434 5433 5433 5432 5432 5432 5432 5432 5432 5433 5433 5434 5434 5435 5435 5436 5437 5438 5440 5442 5444 5446 5447 5449 5450 5452 5454 5457 5458
5449 5446 5443 5441 5438 5435 5433 5431 5429 5427 5425 5424 5423 5422 5421 5420 5419 5419 5418 5418 5417 5417 5417 5418 5418 5418 5419 5420 5420 5420 5421 5422 5424 5426 5428 5430 5431 5433 5434 5436 5438 5440 5441
5437 5434 5432 5429 5426 5423 5421 5419 5417 5414 5413 5411 5410 5409 5407 5406 5405 5405 5404 5403 5403 5403 5403 5403 5403 5403 5404 5404 5404 5405 5405 5406 5408 5410 5412 5414 5415 5417 5419 5420 5422 5423 5425
5426 5423 5420 5417 5414 5411 5409 5406 5404 5402 5400 5399 5397 5395 5394 5393 5391 5390 5389 5389 5388 5388 5387 5387 5388 5388 5389 5389 5389 5390 5390 5391 5393 5394 5396 5398 5399 5401 5403 5405 5406 5408 5410
5414 5411 5408 5405 5402 5399 5397 5394 5392 5390 5388 5386 5385 5383 5381 5379 5378 5376 5375 5374 5373 5372 5372 5372 5372 5372 5373 5374 5374 5374 5376 5376 5378 5379 5381 5383 5384 5386 5387 5389 5391 5393 5395
5402 5399 5396 5393 5390 5388 5385 5382 5380 5378 5376 5374 5372 5370 5368 5366 5364 5363 5361 5359 5358 5357 5356 5356 5356 5357 5358 5358 5359 5360 5361 5361 5363 5365 5367 5368 5369 5371 5372 5374 5376 5378 5381